Time,TemperatureF,DewpointF,PressureIn,WindDirection,WindDirectionDegrees,WindSpeedMPH,WindSpeedGustMPH,Humidity,HourlyPrecipIn,Conditions,Clouds,dailyrainin,SoftwareType,DateUTC
2013-02-22 00:07:00,31.8,18.2,30.32,North,360,0.0,0.0,57,0.00,,OVC250,0.00,VWS V14.01,2013-02-22 05:07:00,
2013-02-22 00:08:00,32.1,18.1,30.32,North,360,0.0,0.0,56,0.00,,OVC250,0.00,VWS V14.01,2013-02-22 05:08:00,
2013-02-22 00:13:00,32.3,17.3,30.32,North,360,0.0,0.0,54,0.00,,OVC250,0.00,VWS V14.01,2013-02-22 05:13:00,
2013-02-22 00:18:00,32.4,17.4,30.33,North,360,0.0,0.0,54,0.00,,OVC250,0.00,VWS V14.01,2013-02-22 05:18:00,
2013-02-22 00:23:00,32.4,17.4,30.32,North,360,0.0,0.0,54,0.00,,OVC250,0.00,VWS V14.01,2013-02-22 05:23:00,
2013-02-22 00:28:00,32.4,17.4,30.33,North,360,0.0,0.0,54,0.00,,OVC250,0.00,VWS V14.01,2013-02-22 05:28:00,
2013-02-22 00:33:00,32.6,17.1,30.33,North,360,0.0,0.0,52,0.00,,OVC250,0.00,VWS V14.01,2013-02-22 05:33:00,
2013-02-22 00:38:00,32.6,16.7,30.34,North,360,0.0,0.0,51,0.00,,OVC250,0.00,VWS V14.01,2013-02-22 05:38:00,
2013-02-22 00:43:00,32.7,16.8,30.33,North,360,0.0,0.0,51,0.00,,OVC250,0.00,VWS V14.01,2013-02-22 05:43:00,
2013-02-22 00:48:00,32.7,16.8,30.34,North,360,0.0,0.0,51,0.00,,OVC250,0.00,VWS V14.01,2013-02-22 05:48:00,
2013-02-22 00:53:00,32.6,17.1,30.34,North,360,0.0,0.0,52,0.00,,OVC240,0.00,VWS V14.01,2013-02-22 05:53:00,
2013-02-22 00:58:00,32.6,17.1,30.34,North,360,0.0,0.0,52,0.00,,OVC240,0.00,VWS V14.01,2013-02-22 05:58:00,
2013-02-22 01:07:00,32.5,17.5,30.33,North,360,0.0,0.0,54,0.00,,OVC240,0.00,VWS V14.01,2013-02-22 06:07:00,
2013-02-22 01:13:00,32.4,17.0,30.33,North,360,0.0,0.0,52,0.00,,OVC240,0.00,VWS V14.01,2013-02-22 06:13:00,
2013-02-22 01:18:00,32.3,17.3,30.32,North,360,0.0,0.0,54,0.00,,OVC240,0.00,VWS V14.01,2013-02-22 06:18:00,
2013-02-22 01:28:00,32.2,17.2,30.32,North,360,0.0,0.0,54,0.00,,OVC240,0.00,VWS V14.01,2013-02-22 06:28:00,
2013-02-22 01:33:00,32.1,17.2,30.32,North,360,0.0,0.0,54,0.00,,OVC240,0.00,VWS V14.01,2013-02-22 06:33:00,
2013-02-22 01:38:00,32.1,17.2,30.33,North,360,0.0,0.0,54,0.00,,OVC240,0.00,VWS V14.01,2013-02-22 06:38:00,
2013-02-22 01:43:00,32.0,16.6,30.34,North,360,0.0,0.0,52,0.00,,OVC240,0.00,VWS V14.01,2013-02-22 06:43:00,
2013-02-22 01:48:00,32.0,16.6,30.35,North,360,0.0,0.0,52,0.00,,OVC240,0.00,VWS V14.01,2013-02-22 06:48:00,
2013-02-22 01:53:00,32.0,16.6,30.35,North,360,0.0,0.0,52,0.00,,OVC240,0.00,VWS V14.01,2013-02-22 06:53:00,
2013-02-22 01:58:00,31.9,17.0,30.34,North,360,0.0,0.0,54,0.00,,OVC240,0.00,VWS V14.01,2013-02-22 06:58:00,
2013-02-22 02:07:00,31.9,17.0,30.34,North,360,0.0,0.0,54,0.00,,OVC240,0.00,VWS V14.01,2013-02-22 07:07:00,
2013-02-22 02:13:00,31.9,17.0,30.35,North,360,0.0,0.0,54,0.00,,OVC240,0.00,VWS V14.01,2013-02-22 07:13:00,
2013-02-22 02:23:00,31.9,17.4,30.35,North,360,0.0,0.0,55,0.00,,OVC240,0.00,VWS V14.01,2013-02-22 07:23:00,
2013-02-22 02:28:00,31.9,17.4,30.35,North,360,0.0,0.0,55,0.00,,OVC240,0.00,VWS V14.01,2013-02-22 07:28:00,
2013-02-22 02:38:00,31.8,16.9,30.35,North,360,0.0,0.0,54,0.00,,OVC240,0.00,VWS V14.01,2013-02-22 07:38:00,
2013-02-22 02:43:00,31.7,17.2,30.36,North,360,0.0,0.0,55,0.00,,OVC240,0.00,VWS V14.01,2013-02-22 07:43:00,
2013-02-22 02:48:00,31.7,17.2,30.36,North,360,0.0,0.0,55,0.00,,OVC240,0.00,VWS V14.01,2013-02-22 07:48:00,
2013-02-22 02:53:00,31.7,17.2,30.36,North,360,0.0,0.0,55,0.00,,OVC240,0.00,VWS V14.01,2013-02-22 07:53:00,
2013-02-22 03:07:00,31.7,16.8,30.37,North,360,0.0,0.0,54,0.00,,OVC230,0.00,VWS V14.01,2013-02-22 08:07:00,
2013-02-22 03:13:00,31.7,16.8,30.37,North,360,0.0,0.0,54,0.00,,OVC230,0.00,VWS V14.01,2013-02-22 08:13:00,
2013-02-22 03:18:00,31.7,16.8,30.37,North,360,0.0,0.0,54,0.00,,OVC230,0.00,VWS V14.01,2013-02-22 08:18:00,
2013-02-22 03:25:00,31.6,17.1,30.37,North,360,0.0,0.0,55,0.00,,OVC230,0.00,VWS V14.01,2013-02-22 08:25:00,
2013-02-22 03:33:00,31.7,16.8,30.38,North,360,0.0,0.0,54,0.00,,OVC230,0.00,VWS V14.01,2013-02-22 08:33:00,
2013-02-22 03:38:00,31.6,17.1,30.39,North,360,0.0,0.0,55,0.00,,OVC230,0.00,VWS V14.01,2013-02-22 08:38:00,
2013-02-22 03:43:00,31.6,17.6,30.38,North,360,0.0,0.0,56,0.00,,OVC230,0.00,VWS V14.01,2013-02-22 08:43:00,
2013-02-22 03:53:00,31.5,17.5,30.39,North,360,0.0,0.0,56,0.00,,OVC230,0.00,VWS V14.01,2013-02-22 08:53:00,
2013-02-22 03:58:00,31.5,17.1,30.40,North,360,0.0,0.0,55,0.00,,OVC220,0.00,VWS V14.01,2013-02-22 08:58:00,
2013-02-22 04:07:00,31.6,17.1,30.40,North,360,0.0,0.0,55,0.00,,OVC220,0.00,VWS V14.01,2013-02-22 09:07:00,
2013-02-22 04:13:00,31.4,17.4,30.40,North,360,0.0,0.0,56,0.00,,OVC220,0.00,VWS V14.01,2013-02-22 09:13:00,
2013-02-22 04:18:00,31.4,17.4,30.40,North,360,0.0,0.0,56,0.00,,OVC220,0.00,VWS V14.01,2013-02-22 09:18:00,
2013-02-22 04:23:00,31.3,17.3,30.39,North,360,0.0,0.0,56,0.00,,OVC220,0.00,VWS V14.01,2013-02-22 09:23:00,
2013-02-22 04:28:00,31.3,17.3,30.39,North,360,0.0,0.0,56,0.00,,OVC220,0.00,VWS V14.01,2013-02-22 09:28:00,
2013-02-22 04:33:00,31.3,17.8,30.39,North,360,0.0,0.0,57,0.00,,OVC220,0.00,VWS V14.01,2013-02-22 09:33:00,
2013-02-22 04:38:00,31.3,17.3,30.40,North,360,0.0,0.0,56,0.00,,OVC220,0.00,VWS V14.01,2013-02-22 09:38:00,
2013-02-22 04:43:00,31.3,17.3,30.40,North,360,0.0,0.0,56,0.00,,OVC220,0.00,VWS V14.01,2013-02-22 09:43:00,
2013-02-22 04:48:00,31.2,17.7,30.40,North,360,0.0,0.0,57,0.00,,OVC220,0.00,VWS V14.01,2013-02-22 09:48:00,
2013-02-22 04:53:00,31.2,17.7,30.40,North,360,0.0,0.0,57,0.00,,OVC220,0.00,VWS V14.01,2013-02-22 09:53:00,
2013-02-22 04:58:00,31.2,17.2,30.40,North,360,0.0,0.0,56,0.00,,OVC210,0.00,VWS V14.01,2013-02-22 09:58:00,
2013-02-22 05:07:00,31.2,17.7,30.39,North,360,0.0,0.0,57,0.00,,OVC210,0.00,VWS V14.01,2013-02-22 10:07:00,
2013-02-22 05:13:00,31.1,18.4,30.36,North,360,0.0,0.0,59,0.00,,OVC210,0.00,VWS V14.01,2013-02-22 10:13:00,
2013-02-22 05:18:00,31.1,18.0,30.36,North,360,0.0,0.0,58,0.00,,OVC210,0.00,VWS V14.01,2013-02-22 10:18:00,
2013-02-22 05:28:00,31.1,18.0,30.38,North,360,0.0,0.0,58,0.00,,OVC210,0.00,VWS V14.01,2013-02-22 10:28:00,
2013-02-22 05:33:00,31.2,18.5,30.38,North,360,0.0,0.0,59,0.00,,OVC210,0.00,VWS V14.01,2013-02-22 10:33:00,
2013-02-22 05:38:00,31.3,19.1,30.39,North,360,0.0,0.0,60,0.00,,OVC210,0.00,VWS V14.01,2013-02-22 10:38:00,
2013-02-22 05:43:00,31.4,19.6,30.38,North,360,0.0,0.0,61,0.00,,OVC210,0.00,VWS V14.01,2013-02-22 10:43:00,
2013-02-22 05:48:00,31.5,19.2,30.38,North,360,0.0,0.0,60,0.00,,OVC210,0.00,VWS V14.01,2013-02-22 10:48:00,
2013-02-22 05:53:00,31.5,19.2,30.38,North,360,0.0,0.0,60,0.00,,OVC210,0.00,VWS V14.01,2013-02-22 10:53:00,
2013-02-22 06:07:00,31.6,19.3,30.37,North,360,0.0,0.0,60,0.00,,OVC190,0.00,VWS V14.01,2013-02-22 11:07:00,
2013-02-22 06:13:00,31.5,18.8,30.37,North,360,0.0,0.0,59,0.00,,OVC190,0.00,VWS V14.01,2013-02-22 11:13:00,
2013-02-22 06:18:00,31.4,19.1,30.36,North,360,0.0,0.0,60,0.00,,OVC190,0.00,VWS V14.01,2013-02-22 11:18:00,
2013-02-22 06:23:00,31.3,19.1,30.36,North,360,0.0,0.0,60,0.00,,OVC190,0.00,VWS V14.01,2013-02-22 11:23:00,
2013-02-22 06:28:00,31.3,19.5,30.37,North,360,0.0,0.0,61,0.00,,OVC190,0.00,VWS V14.01,2013-02-22 11:28:00,
2013-02-22 06:38:00,31.2,19.0,30.37,North,360,0.0,0.0,60,0.00,,OVC190,0.00,VWS V14.01,2013-02-22 11:38:00,
2013-02-22 06:43:00,31.2,19.4,30.38,North,360,0.0,0.0,61,0.00,,OVC190,0.00,VWS V14.01,2013-02-22 11:43:00,
2013-02-22 06:48:00,31.1,19.3,30.39,North,360,0.0,0.0,61,0.00,,OVC190,0.00,VWS V14.01,2013-02-22 11:48:00,
2013-02-22 06:53:00,31.1,18.9,30.39,North,360,0.0,0.0,60,0.00,,OVC190,0.00,VWS V14.01,2013-02-22 11:53:00,
2013-02-22 06:58:00,31.1,19.3,30.39,North,360,0.0,0.0,61,0.00,,OVC150,0.00,VWS V14.01,2013-02-22 11:58:00,
2013-02-22 07:07:00,31.1,19.3,30.39,North,360,0.0,0.0,61,0.00,,OVC150,0.00,VWS V14.01,2013-02-22 12:07:00,
2013-02-22 07:13:00,31.2,19.0,30.39,North,360,0.0,0.0,60,0.00,,OVC150,0.00,VWS V14.01,2013-02-22 12:13:00,
2013-02-22 07:25:00,31.2,19.0,30.40,North,360,0.0,0.0,60,0.00,,OVC150,0.00,VWS V14.01,2013-02-22 12:25:00,
2013-02-22 07:33:00,31.3,19.1,30.41,North,360,0.0,0.0,60,0.00,,OVC150,0.00,VWS V14.01,2013-02-22 12:33:00,
2013-02-22 07:38:00,31.4,19.6,30.40,North,360,0.0,0.0,61,0.00,,OVC150,0.00,VWS V14.01,2013-02-22 12:38:00,
2013-02-22 07:43:00,31.4,19.6,30.40,North,360,0.0,0.0,61,0.00,,OVC150,0.00,VWS V14.01,2013-02-22 12:43:00,
2013-02-22 07:53:00,31.4,19.6,30.41,North,360,0.0,0.0,61,0.00,,OVC150,0.00,VWS V14.01,2013-02-22 12:53:00,
2013-02-22 07:58:00,31.4,19.1,30.41,North,360,0.0,0.0,60,0.00,,OVC200,0.00,VWS V14.01,2013-02-22 12:58:00,
2013-02-22 08:07:00,31.5,19.2,30.41,North,360,0.0,0.0,60,0.00,,OVC200,0.00,VWS V14.01,2013-02-22 13:07:00,
2013-02-22 08:13:00,31.6,19.8,30.40,North,360,0.0,0.0,61,0.00,,OVC200,0.00,VWS V14.01,2013-02-22 13:13:00,
2013-02-22 08:18:00,31.6,19.3,30.40,North,360,0.0,0.0,60,0.00,,OVC200,0.00,VWS V14.01,2013-02-22 13:18:00,
2013-02-22 08:23:00,31.7,19.9,30.41,North,360,0.0,0.0,61,0.00,,OVC200,0.00,VWS V14.01,2013-02-22 13:23:00,
2013-02-22 08:28:00,31.7,19.4,30.40,North,360,0.0,0.0,60,0.00,,OVC200,0.00,VWS V14.01,2013-02-22 13:28:00,
2013-02-22 08:33:00,31.8,20.0,30.40,North,360,0.0,0.0,61,0.00,,OVC200,0.00,VWS V14.01,2013-02-22 13:33:00,
2013-02-22 08:38:00,31.9,20.0,30.39,North,360,0.0,0.0,61,0.00,,OVC200,0.00,VWS V14.01,2013-02-22 13:38:00,
2013-02-22 08:48:00,31.8,19.5,30.39,North,360,0.0,0.0,60,0.00,,OVC200,0.00,VWS V14.01,2013-02-22 13:48:00,
2013-02-22 08:53:00,31.7,19.4,30.38,North,360,0.0,0.0,60,0.00,,OVC200,0.00,VWS V14.01,2013-02-22 13:53:00,
2013-02-22 08:58:00,31.8,20.0,30.38,North,360,0.0,0.0,61,0.00,,OVC130,0.00,VWS V14.01,2013-02-22 13:58:00,
2013-02-22 09:03:00,31.9,20.0,30.38,North,360,0.0,0.0,61,0.00,,OVC130,0.00,VWS V14.01,2013-02-22 14:03:00,
2013-02-22 09:13:00,31.8,20.4,30.37,North,360,0.0,0.0,62,0.00,,OVC130,0.00,VWS V14.01,2013-02-22 14:13:00,
2013-02-22 09:18:00,31.9,20.9,30.37,North,360,0.0,0.0,63,0.00,,OVC130,0.00,VWS V14.01,2013-02-22 14:18:00,
2013-02-22 09:23:00,32.0,21.4,30.36,North,360,0.0,0.0,64,0.00,,OVC130,0.00,VWS V14.01,2013-02-22 14:23:00,
2013-02-22 09:28:00,31.8,20.8,30.36,North,360,0.0,0.0,63,0.00,,OVC130,0.00,VWS V14.01,2013-02-22 14:28:00,
2013-02-22 09:33:00,32.0,21.0,30.36,North,360,0.0,0.0,63,0.00,,OVC130,0.00,VWS V14.01,2013-02-22 14:33:00,
2013-02-22 09:38:00,32.2,21.5,30.36,North,360,0.0,0.0,64,0.00,,OVC130,0.00,VWS V14.01,2013-02-22 14:38:00,
2013-02-22 09:43:00,31.9,20.5,30.36,North,360,0.0,0.0,62,0.00,,OVC130,0.00,VWS V14.01,2013-02-22 14:43:00,
2013-02-22 09:53:00,32.1,20.6,30.37,North,360,0.0,0.0,62,0.00,,OVC130,0.00,VWS V14.01,2013-02-22 14:53:00,
2013-02-22 09:58:00,32.2,21.5,30.36,North,360,0.0,0.0,64,0.00,,OVC100,0.00,VWS V14.01,2013-02-22 14:58:00,
2013-02-22 10:07:00,32.1,20.6,30.36,North,360,0.0,0.0,62,0.00,,OVC100,0.00,VWS V14.01,2013-02-22 15:07:00,
2013-02-22 10:13:00,32.2,20.7,30.36,North,360,0.0,0.0,62,0.00,,OVC100,0.00,VWS V14.01,2013-02-22 15:13:00,
2013-02-22 10:18:00,32.3,21.2,30.36,North,360,0.0,0.0,63,0.00,,OVC100,0.00,VWS V14.01,2013-02-22 15:18:00,
2013-02-22 10:23:00,32.7,22.0,30.36,North,360,0.0,0.0,64,0.00,,OVC100,0.00,VWS V14.01,2013-02-22 15:23:00,
2013-02-22 10:28:00,33.0,21.9,30.36,North,360,0.0,0.0,63,0.00,,OVC100,0.00,VWS V14.01,2013-02-22 15:28:00,
2013-02-22 10:33:00,33.2,22.1,30.36,North,360,0.0,0.0,63,0.00,,OVC100,0.00,VWS V14.01,2013-02-22 15:33:00,
2013-02-22 10:38:00,32.8,20.9,30.35,North,360,0.0,0.0,61,0.00,,OVC100,0.00,VWS V14.01,2013-02-22 15:38:00,
2013-02-22 10:43:00,32.5,21.0,30.35,North,360,0.0,0.0,62,0.00,,OVC100,0.00,VWS V14.01,2013-02-22 15:43:00,
2013-02-22 10:53:00,33.2,21.3,30.36,North,360,0.0,0.0,61,0.00,,OVC100,0.00,VWS V14.01,2013-02-22 15:53:00,
2013-02-22 10:58:00,33.1,21.2,30.36,North,360,0.0,0.0,61,0.00,,OVC090,0.00,VWS V14.01,2013-02-22 15:58:00,
2013-02-22 11:07:00,33.1,21.2,30.36,North,360,0.0,0.0,61,0.00,,OVC090,0.00,VWS V14.01,2013-02-22 16:07:00,
2013-02-22 11:13:00,33.5,21.1,30.37,North,360,0.0,0.0,60,0.00,,OVC090,0.00,VWS V14.01,2013-02-22 16:13:00,
2013-02-22 11:18:00,33.0,21.1,30.37,North,360,0.0,0.0,61,0.00,,OVC090,0.00,VWS V14.01,2013-02-22 16:18:00,
2013-02-22 11:23:00,33.4,21.5,30.38,North,360,0.0,0.0,61,0.00,,OVC090,0.00,VWS V14.01,2013-02-22 16:23:00,
2013-02-22 11:33:00,33.3,22.2,30.37,North,360,0.0,0.0,63,0.00,,OVC090,0.00,VWS V14.01,2013-02-22 16:33:00,
2013-02-22 11:38:00,33.5,22.4,30.37,North,360,0.0,0.0,63,0.00,,OVC090,0.00,VWS V14.01,2013-02-22 16:38:00,
2013-02-22 11:43:00,33.0,23.1,30.37,North,360,0.0,0.0,67,0.00,,OVC090,0.00,VWS V14.01,2013-02-22 16:43:00,
2013-02-22 11:48:00,33.2,23.3,30.36,North,360,0.0,0.0,67,0.00,,OVC090,0.00,VWS V14.01,2013-02-22 16:48:00,
2013-02-22 11:58:00,33.0,22.7,30.36,North,360,0.0,0.0,65,0.00,,,0.00,VWS V14.01,2013-02-22 16:58:00,
2013-02-22 12:07:00,33.0,23.1,30.36,North,360,0.0,0.0,67,0.00,,,0.00,VWS V14.01,2013-02-22 17:07:00,
2013-02-22 12:13:00,33.5,23.2,30.36,North,360,0.0,0.0,65,0.00,,,0.00,VWS V14.01,2013-02-22 17:13:00,
2013-02-22 12:18:00,33.4,22.7,30.36,North,360,0.0,0.0,64,0.00,,,0.00,VWS V14.01,2013-02-22 17:18:00,
2013-02-22 12:25:00,33.4,23.1,30.36,North,360,0.0,0.0,65,0.00,,,0.00,VWS V14.01,2013-02-22 17:25:00,
2013-02-22 12:33:00,33.2,24.0,30.34,North,360,0.0,0.0,69,0.00,,,0.00,VWS V14.01,2013-02-22 17:33:00,
2013-02-22 12:38:00,32.8,24.4,30.35,North,360,0.0,0.0,71,0.00,,,0.00,VWS V14.01,2013-02-22 17:38:00,
2013-02-22 12:43:00,32.5,24.5,30.35,North,360,0.0,0.0,72,0.00,,,0.00,VWS V14.01,2013-02-22 17:43:00,
2013-02-22 12:53:00,32.6,23.8,30.34,North,360,0.0,0.0,70,0.00,,,0.00,VWS V14.01,2013-02-22 17:53:00,
2013-02-22 12:58:00,32.6,24.9,30.34,North,360,0.0,0.0,73,0.00,,-RA,0.00,VWS V14.01,2013-02-22 17:58:00,
2013-02-22 13:07:00,32.5,26.2,30.35,North,360,0.0,0.0,77,0.00,,-RA,0.00,VWS V14.01,2013-02-22 18:07:00,
2013-02-22 13:13:00,32.3,26.0,30.34,North,360,0.0,0.0,77,0.00,,-RA,0.00,VWS V14.01,2013-02-22 18:13:00,
2013-02-22 13:18:00,32.3,27.0,30.34,North,360,0.0,0.0,81,0.00,,-RA,0.00,VWS V14.01,2013-02-22 18:18:00,
2013-02-22 13:28:00,32.1,27.5,30.34,North,360,0.0,0.0,83,0.00,,-RA,0.00,VWS V14.01,2013-02-22 18:28:00,
2013-02-22 13:33:00,31.9,27.9,30.34,North,360,0.0,0.0,85,0.00,,-RA,0.00,VWS V14.01,2013-02-22 18:33:00,
2013-02-22 13:43:00,32.0,28.3,30.34,North,360,0.0,0.0,86,0.00,,-RA,0.00,VWS V14.01,2013-02-22 18:43:00,
2013-02-22 13:48:00,31.8,30.1,30.34,North,360,0.0,0.0,94,0.00,,-RA,0.00,VWS V14.01,2013-02-22 18:48:00,
2013-02-22 13:53:00,32.0,28.9,30.34,North,360,0.0,0.0,88,0.00,,-RA,0.00,VWS V14.01,2013-02-22 18:53:00,
2013-02-22 13:58:00,31.9,28.5,30.34,North,360,0.0,0.0,87,0.00,,-RA,0.00,VWS V14.01,2013-02-22 18:58:00,
2013-02-22 14:03:00,31.8,28.4,30.33,North,360,0.0,0.0,87,0.00,,-RA,0.00,VWS V14.01,2013-02-22 19:03:00,
2013-02-22 14:13:00,31.6,28.2,30.33,North,360,0.0,0.0,87,0.00,,-RA,0.00,VWS V14.01,2013-02-22 19:13:00,
2013-02-22 14:18:00,31.6,28.2,30.33,North,360,0.0,0.0,87,0.00,,-RA,0.00,VWS V14.01,2013-02-22 19:18:00,
2013-02-22 14:23:00,31.7,28.3,30.32,North,360,0.0,0.0,87,0.00,,-RA,0.00,VWS V14.01,2013-02-22 19:23:00,
2013-02-22 14:33:00,31.7,28.3,30.32,North,360,0.0,0.0,87,0.00,,-RA,0.00,VWS V14.01,2013-02-22 19:33:00,
2013-02-22 14:38:00,31.8,28.1,30.32,North,360,0.0,0.0,86,0.00,,-RA,0.00,VWS V14.01,2013-02-22 19:38:00,
2013-02-22 14:43:00,31.6,28.8,30.32,North,360,0.0,0.0,89,0.00,,-RA,0.00,VWS V14.01,2013-02-22 19:43:00,
2013-02-22 14:48:00,31.7,29.2,30.32,North,360,0.0,0.0,90,0.00,,-RA,0.00,VWS V14.01,2013-02-22 19:48:00,
2013-02-22 14:53:00,31.7,29.2,30.32,North,360,0.0,0.0,90,0.00,,-RA,0.00,VWS V14.01,2013-02-22 19:53:00,
2013-02-22 14:58:00,31.7,28.6,30.32,North,360,0.0,0.0,88,0.00,,-RA,0.00,VWS V14.01,2013-02-22 19:58:00,
2013-02-22 15:07:00,31.6,28.8,30.32,North,360,0.0,0.0,89,0.00,,-RA,0.00,VWS V14.01,2013-02-22 20:07:00,
2013-02-22 15:13:00,31.7,28.9,30.31,North,360,0.0,0.0,89,0.00,,-RA,0.00,VWS V14.01,2013-02-22 20:13:00,
2013-02-22 15:18:00,31.8,29.3,30.32,North,360,0.0,0.0,90,0.00,,-RA,0.00,VWS V14.01,2013-02-22 20:18:00,
2013-02-22 15:28:00,31.8,28.7,30.32,North,360,0.0,0.0,88,0.00,,-RA,0.00,VWS V14.01,2013-02-22 20:28:00,
2013-02-22 15:33:00,31.7,28.9,30.32,North,360,0.0,0.0,89,0.00,,-RA,0.00,VWS V14.01,2013-02-22 20:33:00,
2013-02-22 15:43:00,32.1,28.7,30.31,North,360,0.0,0.0,87,0.00,,-RA,0.00,VWS V14.01,2013-02-22 20:43:00,
2013-02-22 15:53:00,32.0,29.2,30.31,North,360,0.0,0.0,89,0.00,,-RA,0.00,VWS V14.01,2013-02-22 20:53:00,
2013-02-22 15:58:00,32.1,29.3,30.32,North,360,0.0,0.0,89,0.00,,OVC055,0.00,VWS V14.01,2013-02-22 20:58:00,
2013-02-22 16:07:00,31.9,28.8,30.32,North,360,0.0,0.0,88,0.00,,OVC055,0.00,VWS V14.01,2013-02-22 21:07:00,
2013-02-22 16:13:00,32.1,28.4,30.32,North,360,0.0,0.0,86,0.00,,OVC055,0.00,VWS V14.01,2013-02-22 21:13:00,
2013-02-22 16:18:00,32.3,28.3,30.31,North,360,0.0,0.0,85,0.00,,OVC055,0.00,VWS V14.01,2013-02-22 21:18:00,
2013-02-22 16:23:00,32.2,28.8,30.31,North,360,0.0,0.0,87,0.00,,OVC055,0.00,VWS V14.01,2013-02-22 21:23:00,
2013-02-22 16:28:00,32.2,29.1,30.31,North,360,0.0,0.0,88,0.00,,OVC055,0.00,VWS V14.01,2013-02-22 21:28:00,
2013-02-22 16:38:00,32.4,28.7,30.31,North,360,0.0,0.0,86,0.00,,OVC055,0.00,VWS V14.01,2013-02-22 21:38:00,
2013-02-22 16:43:00,32.3,28.6,30.31,North,360,0.0,0.0,86,0.00,,OVC055,0.00,VWS V14.01,2013-02-22 21:43:00,
2013-02-22 16:49:00,32.3,29.2,30.30,North,360,0.0,0.0,88,0.00,,OVC055,0.00,VWS V14.01,2013-02-22 21:49:00,
2013-02-22 16:58:00,32.4,29.0,30.30,North,360,0.0,0.0,87,0.00,,-RA,0.00,VWS V14.01,2013-02-22 21:58:00,
2013-02-22 17:07:00,32.4,29.3,30.30,North,360,0.0,0.0,88,0.00,,-RA,0.00,VWS V14.01,2013-02-22 22:07:00,
2013-02-22 17:13:00,32.4,28.7,30.30,North,360,0.0,0.0,86,0.00,,-RA,0.00,VWS V14.01,2013-02-22 22:13:00,
2013-02-22 17:23:00,32.4,29.3,30.30,North,360,0.0,0.0,88,0.00,,-RA,0.00,VWS V14.01,2013-02-22 22:23:00,
2013-02-22 17:28:00,32.4,28.7,30.30,North,360,0.0,0.0,86,0.00,,-RA,0.00,VWS V14.01,2013-02-22 22:28:00,
2013-02-22 17:33:00,32.4,29.0,30.30,North,360,0.0,0.0,87,0.00,,-RA,0.00,VWS V14.01,2013-02-22 22:33:00,
2013-02-22 17:43:00,32.4,29.0,30.30,North,360,0.0,0.0,87,0.00,,-RA,0.00,VWS V14.01,2013-02-22 22:43:00,
2013-02-22 17:48:00,32.3,29.2,30.30,North,360,0.0,0.0,88,0.00,,-RA,0.00,VWS V14.01,2013-02-22 22:48:00,
2013-02-22 17:53:00,32.3,28.9,30.30,North,360,0.0,0.0,87,0.00,,-RA,0.00,VWS V14.01,2013-02-22 22:53:00,
2013-02-22 18:07:00,32.3,28.9,30.30,North,360,0.0,0.0,87,0.00,,OVC055,0.00,VWS V14.01,2013-02-22 23:07:00,
2013-02-22 18:13:00,32.4,29.3,30.30,North,360,0.0,0.0,88,0.00,,OVC055,0.00,VWS V14.01,2013-02-22 23:13:00,
2013-02-22 18:18:00,32.4,29.3,30.30,North,360,0.0,0.0,88,0.00,,OVC055,0.00,VWS V14.01,2013-02-22 23:18:00,
2013-02-22 18:23:00,32.3,29.5,30.30,North,360,0.0,0.0,89,0.00,,OVC055,0.00,VWS V14.01,2013-02-22 23:23:00,
2013-02-22 18:33:00,32.1,29.0,30.30,North,360,0.0,0.0,88,0.00,,OVC055,0.00,VWS V14.01,2013-02-22 23:33:00,
2013-02-22 18:38:00,32.2,29.1,30.30,North,360,0.0,0.0,88,0.00,,OVC055,0.00,VWS V14.01,2013-02-22 23:38:00,
2013-02-22 18:43:00,32.2,29.4,30.29,North,360,0.0,0.0,89,0.00,,OVC055,0.00,VWS V14.01,2013-02-22 23:43:00,
2013-02-22 18:48:00,32.2,29.4,30.30,North,360,0.0,0.0,89,0.00,,OVC055,0.00,VWS V14.01,2013-02-22 23:48:00,
2013-02-22 18:58:00,32.2,29.1,30.30,North,360,0.0,0.0,88,0.00,,-RA,0.00,VWS V14.01,2013-02-22 23:58:00,
2013-02-22 19:07:00,32.3,29.5,30.30,North,360,0.0,0.0,89,0.00,,-RA,0.00,VWS V14.01,2013-02-23 00:07:00,
2013-02-22 19:13:00,32.2,29.1,30.30,North,360,0.0,0.0,88,0.00,,-RA,0.00,VWS V14.01,2013-02-23 00:13:00,
2013-02-22 19:18:00,32.3,28.9,30.30,North,360,0.0,0.0,87,0.00,,-RA,0.00,VWS V14.01,2013-02-23 00:18:00,
2013-02-22 19:28:00,32.4,29.3,30.30,North,360,0.0,0.0,88,0.00,,-RA,0.00,VWS V14.01,2013-02-23 00:28:00,
2013-02-22 19:33:00,32.4,29.3,30.30,North,360,0.0,0.0,88,0.00,,-RA,0.00,VWS V14.01,2013-02-23 00:33:00,
2013-02-22 19:38:00,32.4,29.3,30.29,North,360,0.0,0.0,88,0.00,,-RA,0.00,VWS V14.01,2013-02-23 00:38:00,
2013-02-22 19:43:00,32.4,29.0,30.29,North,360,0.0,0.0,87,0.00,,-RA,0.00,VWS V14.01,2013-02-23 00:43:00,
2013-02-22 19:48:00,32.4,29.0,30.29,North,360,0.0,0.0,87,0.00,,-RA,0.00,VWS V14.01,2013-02-23 00:48:00,
2013-02-22 19:58:00,32.4,29.3,30.29,North,360,0.0,0.0,88,0.00,,OVC048,0.00,VWS V14.01,2013-02-23 00:58:00,
2013-02-22 20:07:00,32.5,29.7,30.29,North,360,0.0,0.0,89,0.00,,OVC048,0.00,VWS V14.01,2013-02-23 01:07:00,
2013-02-22 20:13:00,32.6,29.8,30.29,North,360,0.0,0.0,89,0.00,,OVC048,0.00,VWS V14.01,2013-02-23 01:13:00,
2013-02-22 20:25:00,32.6,30.1,30.29,North,360,0.0,0.0,90,0.00,,OVC048,0.00,VWS V14.01,2013-02-23 01:25:00,
2013-02-22 20:33:00,32.6,30.1,30.29,North,360,0.0,0.0,90,0.00,,OVC048,0.00,VWS V14.01,2013-02-23 01:33:00,
2013-02-22 20:38:00,32.6,29.8,30.29,North,360,0.0,0.0,89,0.00,,OVC048,0.00,VWS V14.01,2013-02-23 01:38:00,
2013-02-22 20:43:00,32.6,30.1,30.28,North,360,0.0,0.0,90,0.00,,OVC048,0.00,VWS V14.01,2013-02-23 01:43:00,
2013-02-22 20:48:00,32.6,30.1,30.29,North,360,0.0,0.0,90,0.00,,OVC048,0.00,VWS V14.01,2013-02-23 01:48:00,
2013-02-22 20:53:00,32.6,29.8,30.29,North,360,0.0,0.0,89,0.00,,OVC048,0.00,VWS V14.01,2013-02-23 01:53:00,
2013-02-22 20:58:00,32.6,29.8,30.28,North,360,0.0,0.0,89,0.00,,OVC048,0.00,VWS V14.01,2013-02-23 01:58:00,
2013-02-22 21:07:00,32.6,29.8,30.28,North,360,0.0,0.0,89,0.00,,OVC048,0.00,VWS V14.01,2013-02-23 02:07:00,
2013-02-22 21:13:00,32.6,29.8,30.28,North,360,0.0,0.0,89,0.00,,OVC048,0.00,VWS V14.01,2013-02-23 02:13:00,
2013-02-22 21:18:00,32.6,29.8,30.28,North,360,0.0,0.0,89,0.00,,OVC048,0.00,VWS V14.01,2013-02-23 02:18:00,
2013-02-22 21:23:00,32.6,30.1,30.28,North,360,0.0,0.0,90,0.00,,OVC048,0.00,VWS V14.01,2013-02-23 02:23:00,
2013-02-22 21:28:00,32.7,29.9,30.28,North,360,0.0,0.0,89,0.00,,OVC048,0.00,VWS V14.01,2013-02-23 02:28:00,
2013-02-22 21:33:00,32.7,30.2,30.28,North,360,0.0,0.0,90,0.00,,OVC048,0.00,VWS V14.01,2013-02-23 02:33:00,
2013-02-22 21:43:00,32.8,30.3,30.28,North,360,0.0,0.0,90,0.00,,OVC048,0.00,VWS V14.01,2013-02-23 02:43:00,
2013-02-22 21:48:00,32.8,30.3,30.28,North,360,0.0,0.0,90,0.00,,OVC048,0.00,VWS V14.01,2013-02-23 02:48:00,
2013-02-22 21:53:00,32.8,30.6,30.28,North,360,0.0,0.0,91,0.00,,OVC048,0.00,VWS V14.01,2013-02-23 02:53:00,
2013-02-22 21:58:00,32.9,30.7,30.27,North,360,0.0,0.0,91,0.00,,OVC046,0.00,VWS V14.01,2013-02-23 02:58:00,
2013-02-22 22:07:00,32.8,30.6,30.27,North,360,0.0,0.0,91,0.00,,OVC046,0.00,VWS V14.01,2013-02-23 03:07:00,
2013-02-22 22:13:00,33.0,30.8,30.28,North,360,0.0,0.0,91,0.00,,OVC046,0.00,VWS V14.01,2013-02-23 03:13:00,
2013-02-22 22:23:00,32.8,30.9,30.27,North,360,0.0,0.0,92,0.00,,OVC046,0.00,VWS V14.01,2013-02-23 03:23:00,
2013-02-22 22:28:00,32.9,30.7,30.27,North,360,0.0,0.0,91,0.00,,OVC046,0.00,VWS V14.01,2013-02-23 03:28:00,
2013-02-22 22:33:00,32.8,30.9,30.27,North,360,0.0,0.0,92,0.00,,OVC046,0.00,VWS V14.01,2013-02-23 03:33:00,
2013-02-22 22:43:00,32.9,31.0,30.26,North,360,0.0,0.0,92,0.00,,OVC046,0.00,VWS V14.01,2013-02-23 03:43:00,
2013-02-22 22:48:00,32.8,31.1,30.26,North,360,0.0,0.0,94,0.00,,OVC046,0.00,VWS V14.01,2013-02-23 03:48:00,
2013-02-22 22:53:00,32.8,31.1,30.26,North,360,0.0,0.0,94,0.00,,OVC046,0.00,VWS V14.01,2013-02-23 03:53:00,
2013-02-22 22:58:00,32.7,31.3,30.27,North,360,0.0,0.0,95,0.00,,,0.00,VWS V14.01,2013-02-23 03:58:00,
2013-02-22 23:07:00,32.7,31.3,30.27,North,360,0.0,0.0,95,0.00,,,0.00,VWS V14.01,2013-02-23 04:07:00,
2013-02-22 23:13:00,32.6,31.2,30.27,North,360,0.0,0.0,95,0.00,,,0.00,VWS V14.01,2013-02-23 04:13:00,
2013-02-22 23:18:00,32.6,31.2,30.26,North,360,0.0,0.0,95,0.00,,,0.00,VWS V14.01,2013-02-23 04:18:00,
2013-02-22 23:23:00,32.7,31.3,30.26,North,360,0.0,0.0,95,0.00,,,0.00,VWS V14.01,2013-02-23 04:23:00,
2013-02-22 23:28:00,32.7,31.6,30.25,North,360,0.0,0.0,96,0.00,,,0.00,VWS V14.01,2013-02-23 04:28:00,
2013-02-22 23:33:00,32.7,31.6,30.25,North,360,0.0,0.0,96,0.00,,,0.00,VWS V14.01,2013-02-23 04:33:00,
2013-02-22 23:38:00,32.6,31.5,30.25,North,360,0.0,0.0,96,0.00,,,0.00,VWS V14.01,2013-02-23 04:38:00,
2013-02-22 23:43:00,32.6,31.5,30.25,North,360,0.0,0.0,96,0.00,,,0.00,VWS V14.01,2013-02-23 04:43:00,
2013-02-22 23:48:00,32.7,31.6,30.25,North,360,0.0,0.0,96,0.00,,,0.00,VWS V14.01,2013-02-23 04:48:00,
2013-02-22 23:58:00,32.7,31.6,30.25,North,360,0.0,0.0,96,0.00,,-RA,0.00,VWS V14.01,2013-02-23 04:58:00,